Tracking 17884 objects as of 3-December-2016
HD Live streaming from Space Station
objects crossing your sky now

METEOSAT 9 (MSG 2)

Track METEOSAT 9 (MSG 2) now!
METEOSAT 9 (MSG 2) is classified as:


NORAD ID: 28912
Int'l Code: 2005-049B
Perigee: 35,790.1 km
Apogee: 35,795.6 km
Inclination: 1.8 °
Period: 1,436.1 minutes
Semi major axis: 42163 km
RCS: 2.0767 m2 (large)
Launch date: December 21, 2005
Source: European Organisation for the Exploitation of Meteorological Satellites (EUME)
Launch site: FRENCH GUIANA (FRGUI)
Your satellite tracking list
Your tracking list is empty





NASA's NSSDC Master Catalog

Two Line Element Set (TLE):
1 28912U 05049B   16337.20537963  .00000071  00000-0  00000+0 0  9992
2 28912   1.8221  69.9205 0000644 239.8023 204.9755  1.00274949 40147
Source of the keplerian elements: AFSPC